Starlink 31474

operational
NORAD ID: 59304 Int'l Des: 2024-056 Owner: SPXS Country: US Constellation: starlink
LEOCIRCULAR

关于 Starlink 31474

正在加载描述...

实时位置

正在加载3D地球...

即将过境

高度历史

Altitude vs Time

uPlot chart will show altitude changes over time

两行轨道根数

1 59304U 24056J 25307.75779531 .00000055 00000-0 11503-4 0 9993
2 59304 42.9995 215.0696 0000965 274.0244 86.0497 15.27582509 91977
Epoch: Nov 3, 2025 • Age: 11 hours

当前状态

高度 482.2 km
速度 7.63 km/s
星下点 10.30°N, 101.37°E
发射日期 Mar 24, 2024
运行时间 1.6 years
类型 internet

技术详情

分类 Payload
质量 730.00 kg
干质量 700.00 kg
总质量 730.00 kg
长度 0.30 m
直径 4.10 m
跨度 29.00 m
形状 Box + pan
制造商 SPXS
平台类型 Starlink V2M
阶段状态 In Orbit
所有者/国家 SPXS/US

大型星座

Loading constellations...